contact:dominique.lefevre@mio.osupytheas.fr, maurice.libes@osupytheas.fr, didier.mallarino@osupytheas.fr
Project:EMSO http://www.emso-fr.org/EMSO-France
Depth: 2436.0 m
Title:EMSO Ligure Ouest : Data MII capteur CSTAR
DateTime,Latitude,Longitude,Instrument_Serial,Reference_Counts,Signal_Counts,Corrected_Signal_raw_counts,Calculated_Beam_c_inverse_meters,Internal_thermistor_counts
DateTime,Latitude,Longitude,Instrument_Serial,Reference_Counts,Signal_Counts,Corrected_Signal_raw_counts,Calculated_Beam_c_inverse_meters,Internal_thermistor_counts
2019-06-25T00:00:32,42.805,6.029,CST-1368DR,8913,12470,15510,0.027,551
2019-06-25T00:03:34,42.805,6.029,CST-1368DR,8913,12471,15510,0.027,551
2019-06-25T00:06:35,42.805,6.029,CST-1368DR,8913,12469,15507,0.028,551
2019-06-25T00:09:37,42.805,6.029,CST-1368DR,8913,12467,15506,0.028,551
2019-06-25T00:12:38,42.805,6.029,CST-1368DR,8913,12466,15504,0.029,551
2019-06-25T00:15:39,42.805,6.029,CST-1368DR,8913,12468,15507,0.028,551
2019-06-25T00:18:41,42.805,6.029,CST-1368DR,8913,12468,15506,0.028,551
2019-06-25T00:21:42,42.805,6.029,CST-1368DR,8913,12466,15504,0.029,551
2019-06-25T00:24:44,42.805,6.029,CST-1368DR,8913,12471,15510,0.027,551
2019-06-25T00:27:45,42.805,6.029,CST-1368DR,8912,12468,15509,0.028,551
2019-06-25T00:30:46,42.805,6.029,CST-1368DR,8912,12466,15506,0.028,551
2019-06-25T00:33:48,42.805,6.029,CST-1368DR,8912,12468,15508,0.028,551
2019-06-25T00:36:49,42.805,6.029,CST-1368DR,8912,12471,15512,0.027,550
2019-06-25T00:39:51,42.805,6.029,CST-1368DR,8912,12462,15501,0.030,551
2019-06-25T00:42:52,42.805,6.029,CST-1368DR,8912,12469,15509,0.028,551
2019-06-25T00:45:53,42.805,6.029,CST-1368DR,8912,12470,15510,0.027,551
2019-06-25T00:48:55,42.805,6.029,CST-1368DR,8912,12466,15505,0.029,551
2019-06-25T00:51:56,42.805,6.029,CST-1368DR,8912,12468,15509,0.028,551
2019-06-25T00:54:58,42.805,6.029,CST-1368DR,8912,12467,15507,0.028,551
2019-06-25T00:57:59,42.805,6.029,CST-1368DR,8912,12468,15508,0.028,550
2019-06-25T01:01:00,42.805,6.029,CST-1368DR,8912,12468,15508,0.028,551
2019-06-25T01:04:02,42.805,6.029,CST-1368DR,8912,12470,15511,0.027,551
2019-06-25T01:07:03,42.805,6.029,CST-1368DR,8912,12467,15507,0.028,551
2019-06-25T01:10:05,42.805,6.029,CST-1368DR,8912,12468,15508,0.028,551
2019-06-25T01:13:06,42.805,6.029,CST-1368DR,8912,12466,15506,0.028,551
2019-06-25T01:16:08,42.805,6.029,CST-1368DR,8912,12467,15507,0.028,551
2019-06-25T01:19:09,42.805,6.029,CST-1368DR,8912,12470,15510,0.027,551
2019-06-25T01:22:10,42.805,6.029,CST-1368DR,8912,12468,15508,0.028,551
2019-06-25T01:25:12,42.805,6.029,CST-1368DR,8912,12469,15510,0.027,551
2019-06-25T01:28:13,42.805,6.029,CST-1368DR,8912,12467,15507,0.028,551
2019-06-25T01:31:15,42.805,6.029,CST-1368DR,8912,12466,15506,0.028,551
2019-06-25T01:34:16,42.805,6.029,CST-1368DR,8912,12466,15506,0.028,551
2019-06-25T01:37:17,42.805,6.029,CST-1368DR,8912,12467,15507,0.028,551
2019-06-25T01:40:19,42.805,6.029,CST-1368DR,8912,12469,15509,0.028,551
2019-06-25T01:43:20,42.805,6.029,CST-1368DR,8912,12468,15508,0.028,550
2019-06-25T01:46:22,42.805,6.029,CST-1368DR,8912,12468,15508,0.028,550
2019-06-25T01:49:23,42.805,6.029,CST-1368DR,8912,12462,15500,0.030,551
2019-06-25T01:52:24,42.805,6.029,CST-1368DR,8911,12469,15511,0.027,551
2019-06-25T01:55:26,42.805,6.029,CST-1368DR,8911,12468,15509,0.028,550
2019-06-25T01:58:27,42.805,6.029,CST-1368DR,8911,12468,15510,0.027,551
2019-06-25T02:01:29,42.805,6.029,CST-1368DR,8911,12467,15509,0.028,551
2019-06-25T02:04:30,42.805,6.029,CST-1368DR,8911,12468,15509,0.028,550
2019-06-25T02:07:31,42.805,6.029,CST-1368DR,8911,12468,15510,0.027,551
2019-06-25T02:10:33,42.805,6.029,CST-1368DR,8911,12468,15510,0.027,550
2019-06-25T02:13:34,42.805,6.029,CST-1368DR,8911,12466,15507,0.028,551
2019-06-25T02:16:36,42.805,6.029,CST-1368DR,8911,12467,15509,0.028,551
2019-06-25T02:19:37,42.805,6.029,CST-1368DR,8911,12469,15511,0.027,551
2019-06-25T02:22:39,42.805,6.029,CST-1368DR,8911,12447,15484,0.034,551
2019-06-25T02:25:40,42.805,6.029,CST-1368DR,8911,12459,15498,0.030,551
2019-06-25T02:28:41,42.805,6.029,CST-1368DR,8911,12464,15505,0.029,551
2019-06-25T02:31:43,42.805,6.029,CST-1368DR,8911,12465,15507,0.028,551
2019-06-25T02:34:44,42.805,6.029,CST-1368DR,8911,12467,15508,0.028,551
2019-06-25T02:37:46,42.805,6.029,CST-1368DR,8911,12465,15506,0.028,551
2019-06-25T02:40:47,42.805,6.029,CST-1368DR,8911,12467,15508,0.028,551
2019-06-25T02:43:48,42.805,6.029,CST-1368DR,8911,12466,15508,0.028,551
2019-06-25T02:46:50,42.805,6.029,CST-1368DR,8911,12467,15509,0.028,551
2019-06-25T02:49:51,42.805,6.029,CST-1368DR,8911,12466,15507,0.028,551
2019-06-25T02:52:53,42.805,6.029,CST-1368DR,8911,12466,15507,0.028,551
2019-06-25T02:55:54,42.805,6.029,CST-1368DR,8911,12468,15509,0.028,551
2019-06-25T02:58:55,42.805,6.029,CST-1368DR,8911,12467,15509,0.028,551
2019-06-25T03:01:57,42.805,6.029,CST-1368DR,8911,12466,15507,0.028,551
2019-06-25T03:04:58,42.805,6.029,CST-1368DR,8911,12467,15509,0.028,551
2019-06-25T03:08:00,42.805,6.029,CST-1368DR,8911,12468,15510,0.027,551
2019-06-25T03:11:01,42.805,6.029,CST-1368DR,8911,12463,15503,0.029,551
2019-06-25T03:14:02,42.805,6.029,CST-1368DR,8911,12470,15513,0.026,551
2019-06-25T03:17:04,42.805,6.029,CST-1368DR,8911,12462,15503,0.029,551
2019-06-25T03:20:05,42.805,6.029,CST-1368DR,8911,12469,15511,0.027,551
2019-06-25T03:23:07,42.805,6.029,CST-1368DR,8911,12469,15511,0.027,551
2019-06-25T03:26:08,42.805,6.029,CST-1368DR,8911,12464,15505,0.029,551
2019-06-25T03:29:10,42.805,6.029,CST-1368DR,8911,12464,15505,0.029,551
2019-06-25T03:32:11,42.805,6.029,CST-1368DR,8911,12468,15510,0.027,551
2019-06-25T03:35:12,42.805,6.029,CST-1368DR,8911,12467,15508,0.028,551
2019-06-25T03:38:14,42.805,6.029,CST-1368DR,8911,12467,15508,0.028,551
2019-06-25T03:41:15,42.805,6.029,CST-1368DR,8911,12469,15511,0.027,550
2019-06-25T03:44:17,42.805,6.029,CST-1368DR,8911,12469,15511,0.027,551
2019-06-25T03:47:18,42.805,6.029,CST-1368DR,8911,12467,15509,0.028,551
2019-06-25T03:50:19,42.805,6.029,CST-1368DR,8911,12468,15510,0.027,551
2019-06-25T03:53:21,42.805,6.029,CST-1368DR,8911,12467,15509,0.028,551
2019-06-25T03:56:22,42.805,6.029,CST-1368DR,8911,12467,15509,0.028,551
2019-06-25T03:59:24,42.805,6.029,CST-1368DR,8911,12467,15509,0.028,551
2019-06-25T04:02:25,42.805,6.029,CST-1368DR,8910,12468,15512,0.027,551
2019-06-25T04:05:26,42.805,6.029,CST-1368DR,8910,12467,15510,0.027,551
2019-06-25T04:08:28,42.805,6.029,CST-1368DR,8910,12467,15510,0.027,551
2019-06-25T04:11:29,42.805,6.029,CST-1368DR,8910,12468,15512,0.027,551
2019-06-25T04:14:31,42.805,6.029,CST-1368DR,8910,12469,15512,0.027,551
2019-06-25T04:17:32,42.805,6.029,CST-1368DR,8910,12467,15510,0.027,551
2019-06-25T04:20:33,42.805,6.029,CST-1368DR,8910,12463,15505,0.029,551
2019-06-25T04:23:35,42.805,6.029,CST-1368DR,8910,12466,15508,0.028,551
2019-06-25T04:26:36,42.805,6.029,CST-1368DR,8910,12467,15510,0.027,551
2019-06-25T04:29:38,42.805,6.029,CST-1368DR,8910,12468,15511,0.027,551
2019-06-25T04:32:39,42.805,6.029,CST-1368DR,8910,12465,15508,0.028,551
2019-06-25T04:35:41,42.805,6.029,CST-1368DR,8910,12466,15509,0.028,551
2019-06-25T04:38:42,42.805,6.029,CST-1368DR,8910,12458,15499,0.030,551
2019-06-25T04:41:43,42.805,6.029,CST-1368DR,8910,12466,15509,0.028,551
2019-06-25T04:44:45,42.805,6.029,CST-1368DR,8910,12465,15508,0.028,551
2019-06-25T04:47:46,42.805,6.029,CST-1368DR,8910,12465,15508,0.028,551
2019-06-25T04:50:48,42.805,6.029,CST-1368DR,8910,12465,15508,0.028,551
2019-06-25T04:53:49,42.805,6.029,CST-1368DR,8910,12448,15486,0.033,551
2019-06-25T04:56:50,42.805,6.029,CST-1368DR,8910,12464,15507,0.028,551
2019-06-25T04:59:52,42.805,6.029,CST-1368DR,8910,12462,15504,0.029,550
2019-06-25T05:02:53,42.805,6.029,CST-1368DR,8910,12461,15502,0.029,551
2019-06-25T05:05:55,42.805,6.029,CST-1368DR,8910,12466,15509,0.028,551
2019-06-25T05:08:56,42.805,6.029,CST-1368DR,8910,12465,15508,0.028,551
2019-06-25T05:11:57,42.805,6.029,CST-1368DR,8910,12466,15509,0.028,551
2019-06-25T05:14:59,42.805,6.029,CST-1368DR,8910,12467,15510,0.027,551
2019-06-25T05:18:00,42.805,6.029,CST-1368DR,8910,12466,15509,0.028,551
2019-06-25T05:21:02,42.805,6.029,CST-1368DR,8910,12465,15508,0.028,551
2019-06-25T05:24:03,42.805,6.029,CST-1368DR,8910,12464,15506,0.028,551
2019-06-25T05:27:05,42.805,6.029,CST-1368DR,8910,12465,15508,0.028,550
2019-06-25T05:30:06,42.805,6.029,CST-1368DR,8910,12463,15505,0.029,551
2019-06-25T05:33:07,42.805,6.029,CST-1368DR,8910,12464,15507,0.028,551
2019-06-25T05:36:09,42.805,6.029,CST-1368DR,8909,12465,15509,0.028,551
2019-06-25T05:39:10,42.805,6.029,CST-1368DR,8909,12464,15508,0.028,551
2019-06-25T05:42:12,42.805,6.029,CST-1368DR,8910,12465,15508,0.028,551
2019-06-25T05:45:13,42.805,6.029,CST-1368DR,8910,12464,15507,0.028,551
2019-06-25T05:48:14,42.805,6.029,CST-1368DR,8910,12465,15508,0.028,551
2019-06-25T05:51:16,42.805,6.029,CST-1368DR,8909,12461,15504,0.029,551
2019-06-25T05:54:17,42.805,6.029,CST-1368DR,8910,12466,15508,0.028,551
2019-06-25T05:57:19,42.805,6.029,CST-1368DR,8910,12465,15508,0.028,551
2019-06-25T06:00:20,42.805,6.029,CST-1368DR,8910,12463,15505,0.029,550
2019-06-25T06:03:21,42.805,6.029,CST-1368DR,8909,12457,15499,0.030,551
2019-06-25T06:06:23,42.805,6.029,CST-1368DR,8909,12461,15504,0.029,551
2019-06-25T06:09:24,42.805,6.029,CST-1368DR,8909,12463,15506,0.028,551
2019-06-25T06:12:26,42.805,6.029,CST-1368DR,8909,12461,15504,0.029,551
2019-06-25T06:15:27,42.805,6.029,CST-1368DR,8909,12465,15509,0.028,551
2019-06-25T06:18:28,42.805,6.029,CST-1368DR,8909,12466,15511,0.027,551
2019-06-25T06:21:30,42.805,6.029,CST-1368DR,8909,12465,15510,0.027,551
2019-06-25T06:24:31,42.805,6.029,CST-1368DR,8909,12463,15507,0.028,551
2019-06-25T06:27:33,42.805,6.029,CST-1368DR,8909,12465,15510,0.027,551
2019-06-25T06:30:34,42.805,6.029,CST-1368DR,8909,12465,15510,0.027,551
2019-06-25T06:33:36,42.805,6.029,CST-1368DR,8909,12464,15508,0.028,551
2019-06-25T06:36:37,42.805,6.029,CST-1368DR,8909,12465,15510,0.027,551
2019-06-25T06:39:38,42.805,6.029,CST-1368DR,8909,12464,15508,0.028,551
2019-06-25T06:42:40,42.805,6.029,CST-1368DR,8909,12463,15507,0.028,551
2019-06-25T06:45:41,42.805,6.029,CST-1368DR,8909,12464,15508,0.028,551
2019-06-25T06:48:43,42.805,6.029,CST-1368DR,8909,12461,15505,0.029,550
2019-06-25T06:51:44,42.805,6.029,CST-1368DR,8909,12459,15501,0.030,551
2019-06-25T06:54:45,42.805,6.029,CST-1368DR,8909,12462,15506,0.028,550
2019-06-25T06:57:47,42.805,6.029,CST-1368DR,8909,12464,15508,0.028,551
2019-06-25T07:00:48,42.805,6.029,CST-1368DR,8909,12464,15508,0.028,551
2019-06-25T07:03:50,42.805,6.029,CST-1368DR,8909,12456,15498,0.030,551
2019-06-25T07:06:51,42.805,6.029,CST-1368DR,8909,12464,15508,0.028,551
2019-06-25T07:09:52,42.805,6.029,CST-1368DR,8909,12464,15508,0.028,551
2019-06-25T07:12:54,42.805,6.029,CST-1368DR,8909,12464,15508,0.028,551
2019-06-25T07:15:55,42.805,6.029,CST-1368DR,8909,12463,15506,0.028,551
2019-06-25T07:18:57,42.805,6.029,CST-1368DR,8909,12464,15508,0.028,551
2019-06-25T07:21:58,42.805,6.029,CST-1368DR,8908,12445,15486,0.033,551
2019-06-25T07:24:59,42.805,6.029,CST-1368DR,8909,12464,15508,0.028,551
2019-06-25T07:28:01,42.805,6.029,CST-1368DR,8908,12462,15508,0.028,551
2019-06-25T07:31:02,42.805,6.029,CST-1368DR,8909,12465,15509,0.028,551
2019-06-25T07:34:04,42.805,6.029,CST-1368DR,8908,12463,15508,0.028,551
2019-06-25T07:37:05,42.805,6.029,CST-1368DR,8908,12464,15510,0.027,551
2019-06-25T07:40:07,42.805,6.029,CST-1368DR,8908,12462,15507,0.028,551
2019-06-25T07:43:08,42.805,6.029,CST-1368DR,8909,12466,15510,0.027,551
2019-06-25T07:46:09,42.805,6.029,CST-1368DR,8909,12466,15510,0.027,551
2019-06-25T07:49:11,42.805,6.029,CST-1368DR,8908,12458,15502,0.029,551
2019-06-25T07:52:12,42.805,6.029,CST-1368DR,8908,12461,15505,0.029,551
2019-06-25T07:55:14,42.805,6.029,CST-1368DR,8908,12455,15498,0.030,550
2019-06-25T07:58:15,42.805,6.029,CST-1368DR,8908,12462,15507,0.028,551
2019-06-25T08:01:16,42.805,6.029,CST-1368DR,8908,12462,15507,0.028,551
2019-06-25T08:04:18,42.805,6.029,CST-1368DR,8908,12464,15509,0.028,551
2019-06-25T08:07:19,42.805,6.029,CST-1368DR,8908,12459,15504,0.029,551
2019-06-25T08:10:21,42.805,6.029,CST-1368DR,8908,12464,15509,0.028,551
2019-06-25T08:13:22,42.805,6.029,CST-1368DR,8908,12464,15510,0.027,551
2019-06-25T08:16:23,42.805,6.029,CST-1368DR,8908,12464,15510,0.027,551
2019-06-25T08:19:25,42.805,6.029,CST-1368DR,8908,12461,15506,0.028,551
2019-06-25T08:22:26,42.805,6.029,CST-1368DR,8908,12464,15509,0.028,551
2019-06-25T08:25:28,42.805,6.029,CST-1368DR,8908,12465,15511,0.027,551
2019-06-25T08:28:29,42.805,6.029,CST-1368DR,8908,12465,15511,0.027,550
2019-06-25T08:31:30,42.805,6.029,CST-1368DR,8908,12465,15511,0.027,551
2019-06-25T08:34:32,42.805,6.029,CST-1368DR,8908,12464,15510,0.027,551
2019-06-25T08:37:33,42.805,6.029,CST-1368DR,8908,12464,15510,0.027,550
2019-06-25T08:40:35,42.805,6.029,CST-1368DR,8908,12463,15508,0.028,551
2019-06-25T08:43:36,42.805,6.029,CST-1368DR,8908,12463,15508,0.028,551
2019-06-25T08:46:38,42.805,6.029,CST-1368DR,8908,12465,15510,0.027,551
2019-06-25T08:49:39,42.805,6.029,CST-1368DR,8908,12464,15509,0.028,551
2019-06-25T08:52:40,42.805,6.029,CST-1368DR,8907,12462,15509,0.028,550
2019-06-25T08:55:42,42.805,6.029,CST-1368DR,8908,12456,15499,0.030,551
2019-06-25T08:58:43,42.805,6.029,CST-1368DR,8907,12465,15512,0.027,551
2019-06-25T09:01:45,42.805,6.029,CST-1368DR,8907,12464,15511,0.027,551
2019-06-25T09:04:46,42.805,6.029,CST-1368DR,8907,12464,15511,0.027,551
2019-06-25T09:07:47,42.805,6.029,CST-1368DR,8907,12464,15512,0.027,551
2019-06-25T09:10:49,42.805,6.029,CST-1368DR,8907,12459,15505,0.029,551
2019-06-25T09:13:50,42.805,6.029,CST-1368DR,8907,12462,15509,0.028,551
2019-06-25T09:16:52,42.805,6.029,CST-1368DR,8907,12463,15510,0.027,551
2019-06-25T09:19:53,42.805,6.029,CST-1368DR,8907,12451,15495,0.031,551
2019-06-25T09:22:54,42.805,6.029,CST-1368DR,8907,12463,15510,0.027,550
2019-06-25T09:25:56,42.805,6.029,CST-1368DR,8907,12465,15513,0.026,551
2019-06-25T09:28:57,42.805,6.029,CST-1368DR,8907,12464,15511,0.027,551
2019-06-25T09:31:59,42.805,6.029,CST-1368DR,8907,12465,15512,0.027,551
2019-06-25T09:35:00,42.805,6.029,CST-1368DR,8907,12466,15513,0.026,550
2019-06-25T09:38:01,42.805,6.029,CST-1368DR,8907,12465,15513,0.026,551
2019-06-25T09:41:03,42.805,6.029,CST-1368DR,8907,12465,15512,0.027,551
2019-06-25T09:44:04,42.805,6.029,CST-1368DR,8907,12464,15511,0.027,551
2019-06-25T09:47:06,42.805,6.029,CST-1368DR,8907,12461,15508,0.028,551
2019-06-25T09:50:07,42.805,6.029,CST-1368DR,8907,12464,15511,0.027,551
2019-06-25T09:53:09,42.805,6.029,CST-1368DR,8907,12465,15512,0.027,550
2019-06-25T09:56:10,42.805,6.029,CST-1368DR,8907,12464,15512,0.027,551
2019-06-25T09:59:11,42.805,6.029,CST-1368DR,8907,12465,15512,0.027,551
2019-06-25T10:02:13,42.805,6.029,CST-1368DR,8907,12464,15511,0.027,551
2019-06-25T10:05:14,42.805,6.029,CST-1368DR,8907,12465,15512,0.027,551
2019-06-25T10:08:16,42.805,6.029,CST-1368DR,8907,12463,15510,0.027,551
2019-06-25T10:11:17,42.805,6.029,CST-1368DR,8907,12464,15511,0.027,551
2019-06-25T10:14:18,42.805,6.029,CST-1368DR,8907,12463,15510,0.027,551
2019-06-25T10:17:20,42.805,6.029,CST-1368DR,8907,12462,15509,0.028,551
2019-06-25T10:20:21,42.805,6.029,CST-1368DR,8907,12463,15510,0.027,550
2019-06-25T10:23:23,42.805,6.029,CST-1368DR,8907,12464,15512,0.027,550
2019-06-25T10:26:24,42.805,6.029,CST-1368DR,8907,12462,15509,0.028,551
2019-06-25T10:29:25,42.805,6.029,CST-1368DR,8907,12465,15512,0.027,551
2019-06-25T10:32:27,42.805,6.029,CST-1368DR,8906,12463,15511,0.027,551
2019-06-25T10:35:28,42.805,6.029,CST-1368DR,8907,12458,15504,0.029,550
2019-06-25T10:38:30,42.805,6.029,CST-1368DR,8906,12464,15513,0.026,550
2019-06-25T10:41:31,42.805,6.029,CST-1368DR,8906,12464,15513,0.026,550
2019-06-25T10:44:32,42.805,6.029,CST-1368DR,8906,12461,15509,0.028,550
2019-06-25T10:47:34,42.805,6.029,CST-1368DR,8906,12465,15514,0.026,551
2019-06-25T10:50:35,42.805,6.029,CST-1368DR,8906,12464,15513,0.026,551
2019-06-25T10:53:37,42.805,6.029,CST-1368DR,8906,12463,15511,0.027,551
2019-06-25T10:56:38,42.805,6.029,CST-1368DR,8906,12465,15514,0.026,551
2019-06-25T10:59:40,42.805,6.029,CST-1368DR,8906,12462,15510,0.027,550
2019-06-25T11:02:41,42.805,6.029,CST-1368DR,8906,12463,15511,0.027,551
2019-06-25T11:05:42,42.805,6.029,CST-1368DR,8906,12465,15514,0.026,550
2019-06-25T11:08:44,42.805,6.029,CST-1368DR,8906,12464,15513,0.026,551
2019-06-25T11:11:45,42.805,6.029,CST-1368DR,8906,12464,15513,0.026,551
2019-06-25T11:14:47,42.805,6.029,CST-1368DR,8906,12464,15513,0.026,551
2019-06-25T11:17:48,42.805,6.029,CST-1368DR,8906,12464,15513,0.026,551
2019-06-25T11:20:49,42.805,6.029,CST-1368DR,8906,12456,15503,0.029,551
2019-06-25T11:23:51,42.805,6.029,CST-1368DR,8906,12462,15510,0.027,551
2019-06-25T11:26:52,42.805,6.029,CST-1368DR,8906,12462,15511,0.027,551
2019-06-25T11:29:54,42.805,6.029,CST-1368DR,8906,12465,15514,0.026,551
2019-06-25T11:32:55,42.805,6.029,CST-1368DR,8906,12465,15514,0.026,551
2019-06-25T11:35:56,42.805,6.029,CST-1368DR,8906,12464,15513,0.026,551
2019-06-25T11:38:58,42.805,6.029,CST-1368DR,8906,12458,15506,0.028,551
2019-06-25T11:41:59,42.805,6.029,CST-1368DR,8906,12460,15507,0.028,551
2019-06-25T11:45:01,42.805,6.029,CST-1368DR,8906,12463,15511,0.027,551
2019-06-25T11:48:02,42.805,6.029,CST-1368DR,8906,12464,15512,0.027,551
2019-06-25T11:51:03,42.805,6.029,CST-1368DR,8906,12463,15512,0.027,551
2019-06-25T11:54:05,42.805,6.029,CST-1368DR,8906,12463,15511,0.027,551
2019-06-25T11:57:06,42.805,6.029,CST-1368DR,8906,12463,15512,0.027,551
2019-06-25T12:00:08,42.805,6.029,CST-1368DR,8906,12463,15511,0.027,551
2019-06-25T12:03:09,42.805,6.029,CST-1368DR,8906,12461,15509,0.028,551
2019-06-25T12:06:11,42.805,6.029,CST-1368DR,8906,12462,15511,0.027,551
2019-06-25T12:09:12,42.805,6.029,CST-1368DR,8906,12464,15513,0.026,551
2019-06-25T12:12:13,42.805,6.029,CST-1368DR,8906,12463,15511,0.027,550
2019-06-25T12:15:15,42.805,6.029,CST-1368DR,8906,12458,15506,0.028,551
2019-06-25T12:18:16,42.805,6.029,CST-1368DR,8906,12457,15504,0.029,551
2019-06-25T12:21:18,42.805,6.029,CST-1368DR,8906,12462,15510,0.027,551
2019-06-25T12:24:19,42.805,6.029,CST-1368DR,8906,12461,15509,0.028,551
2019-06-25T12:27:20,42.805,6.029,CST-1368DR,8905,12461,15511,0.027,551
2019-06-25T12:30:22,42.805,6.029,CST-1368DR,8905,12460,15509,0.028,551
2019-06-25T12:33:23,42.805,6.029,CST-1368DR,8905,12459,15509,0.028,551
2019-06-25T12:36:25,42.805,6.029,CST-1368DR,8905,12462,15511,0.027,550
2019-06-25T12:39:26,42.805,6.029,CST-1368DR,8905,12462,15512,0.027,551
2019-06-25T12:42:27,42.805,6.029,CST-1368DR,8905,12464,15515,0.026,551
2019-06-25T12:45:29,42.805,6.029,CST-1368DR,8905,12463,15513,0.026,551
2019-06-25T12:48:30,42.805,6.029,CST-1368DR,8905,12459,15509,0.028,551
2019-06-25T12:51:32,42.805,6.029,CST-1368DR,8905,12463,15513,0.026,551
2019-06-25T12:54:33,42.805,6.029,CST-1368DR,8905,12461,15510,0.027,551
2019-06-25T12:57:35,42.805,6.029,CST-1368DR,8905,12462,15512,0.027,551
2019-06-25T13:00:36,42.805,6.029,CST-1368DR,8905,12463,15513,0.026,551
2019-06-25T13:03:37,42.805,6.029,CST-1368DR,8905,12462,15512,0.027,551
2019-06-25T13:06:39,42.805,6.029,CST-1368DR,8905,12464,15514,0.026,551
2019-06-25T13:09:40,42.805,6.029,CST-1368DR,8905,12462,15511,0.027,551
2019-06-25T13:12:42,42.805,6.029,CST-1368DR,8905,12462,15512,0.027,551
2019-06-25T13:15:43,42.805,6.029,CST-1368DR,8905,12461,15511,0.027,551
2019-06-25T13:18:44,42.805,6.029,CST-1368DR,8905,12459,15509,0.028,551
2019-06-25T13:21:46,42.805,6.029,CST-1368DR,8905,12463,15513,0.026,550
2019-06-25T13:24:47,42.805,6.029,CST-1368DR,8905,12462,15512,0.027,551
2019-06-25T13:27:49,42.805,6.029,CST-1368DR,8905,12462,15512,0.027,551
2019-06-25T13:30:50,42.805,6.029,CST-1368DR,8905,12462,15512,0.027,551
2019-06-25T13:33:51,42.805,6.029,CST-1368DR,8905,12464,15515,0.026,551
2019-06-25T13:36:53,42.805,6.029,CST-1368DR,8905,12462,15512,0.027,551
2019-06-25T13:39:54,42.805,6.029,CST-1368DR,8905,12462,15511,0.027,551
2019-06-25T13:42:56,42.805,6.029,CST-1368DR,8905,12462,15512,0.027,550
2019-06-25T13:45:57,42.805,6.029,CST-1368DR,8905,12450,15497,0.031,551
2019-06-25T13:48:58,42.805,6.029,CST-1368DR,8905,12461,15511,0.027,551
2019-06-25T13:52:00,42.805,6.029,CST-1368DR,8904,12425,15467,0.038,551
2019-06-25T13:55:01,42.805,6.029,CST-1368DR,8905,12461,15511,0.027,551
2019-06-25T13:58:03,42.805,6.029,CST-1368DR,8905,12461,15511,0.027,551
2019-06-25T14:01:04,42.805,6.029,CST-1368DR,8905,12463,15513,0.026,551
2019-06-25T14:04:06,42.805,6.029,CST-1368DR,8905,12462,15512,0.027,551
2019-06-25T14:07:07,42.805,6.029,CST-1368DR,8905,12461,15510,0.027,551
2019-06-25T14:10:08,42.805,6.029,CST-1368DR,8905,12463,15513,0.026,551
2019-06-25T14:13:10,42.805,6.029,CST-1368DR,8905,12464,15514,0.026,551
2019-06-25T14:16:11,42.805,6.029,CST-1368DR,8905,12459,15508,0.028,551
2019-06-25T14:19:13,42.805,6.029,CST-1368DR,8905,12461,15511,0.027,550
2019-06-25T14:22:14,42.805,6.029,CST-1368DR,8904,12461,15512,0.027,551
2019-06-25T14:25:15,42.805,6.029,CST-1368DR,8904,12463,15514,0.026,551
2019-06-25T14:28:17,42.805,6.029,CST-1368DR,8905,12461,15511,0.027,550
2019-06-25T14:31:18,42.805,6.029,CST-1368DR,8904,12461,15512,0.027,551
2019-06-25T14:34:20,42.805,6.029,CST-1368DR,8904,12461,15513,0.026,551
2019-06-25T14:37:21,42.805,6.029,CST-1368DR,8904,12460,15511,0.027,551
2019-06-25T14:40:22,42.805,6.029,CST-1368DR,8904,12461,15513,0.026,551
2019-06-25T14:43:24,42.805,6.029,CST-1368DR,8904,12461,15513,0.026,551
2019-06-25T14:46:25,42.805,6.029,CST-1368DR,8904,12462,15513,0.026,550
2019-06-25T14:49:27,42.805,6.029,CST-1368DR,8904,12462,15514,0.026,551
2019-06-25T14:52:28,42.805,6.029,CST-1368DR,8904,12460,15511,0.027,551
2019-06-25T14:55:29,42.805,6.029,CST-1368DR,8904,12461,15512,0.027,551
2019-06-25T14:58:31,42.805,6.029,CST-1368DR,8904,12462,15513,0.026,551
2019-06-25T15:01:32,42.805,6.029,CST-1368DR,8904,12461,15512,0.027,551
2019-06-25T15:04:34,42.805,6.029,CST-1368DR,8904,12461,15512,0.027,551
2019-06-25T15:07:35,42.805,6.029,CST-1368DR,8904,12459,15510,0.027,551
2019-06-25T15:10:37,42.805,6.029,CST-1368DR,8904,12460,15512,0.027,551
2019-06-25T15:13:38,42.805,6.029,CST-1368DR,8904,12461,15512,0.027,551
2019-06-25T15:16:39,42.805,6.029,CST-1368DR,8904,12462,15514,0.026,550
2019-06-25T15:19:41,42.805,6.029,CST-1368DR,8904,12457,15507,0.028,550
2019-06-25T15:22:42,42.805,6.029,CST-1368DR,8904,12461,15512,0.027,551
2019-06-25T15:25:44,42.805,6.029,CST-1368DR,8904,12459,15510,0.027,551
2019-06-25T15:28:45,42.805,6.029,CST-1368DR,8904,12461,15512,0.027,550
2019-06-25T15:31:46,42.805,6.029,CST-1368DR,8904,12459,15510,0.027,551
2019-06-25T15:34:48,42.805,6.029,CST-1368DR,8904,12459,15510,0.027,551
2019-06-25T15:37:49,42.805,6.029,CST-1368DR,8904,12460,15511,0.027,551
2019-06-25T15:40:51,42.805,6.029,CST-1368DR,8904,12458,15509,0.028,551
2019-06-25T15:43:52,42.805,6.029,CST-1368DR,8904,12462,15513,0.026,551
2019-06-25T15:46:53,42.805,6.029,CST-1368DR,8904,12455,15505,0.029,551
2019-06-25T15:49:55,42.805,6.029,CST-1368DR,8904,12459,15510,0.027,551
2019-06-25T15:52:56,42.805,6.029,CST-1368DR,8904,12459,15510,0.027,551
2019-06-25T15:55:58,42.805,6.029,CST-1368DR,8904,12461,15512,0.027,551
2019-06-25T15:58:59,42.805,6.029,CST-1368DR,8904,12459,15510,0.027,551
2019-06-25T16:02:00,42.805,6.029,CST-1368DR,8903,12459,15511,0.027,551
2019-06-25T16:05:02,42.805,6.029,CST-1368DR,8903,12460,15513,0.026,551
2019-06-25T16:08:03,42.805,6.029,CST-1368DR,8903,12458,15510,0.027,551
2019-06-25T16:11:05,42.805,6.029,CST-1368DR,8903,12459,15512,0.027,550
2019-06-25T16:14:06,42.805,6.029,CST-1368DR,8903,12459,15512,0.027,551
2019-06-25T16:17:08,42.805,6.029,CST-1368DR,8903,12460,15513,0.026,551
2019-06-25T16:20:09,42.805,6.029,CST-1368DR,8903,12457,15509,0.028,551
2019-06-25T16:23:10,42.805,6.029,CST-1368DR,8903,12460,15512,0.027,551
2019-06-25T16:26:12,42.805,6.029,CST-1368DR,8903,12459,15511,0.027,551
2019-06-25T16:29:13,42.805,6.029,CST-1368DR,8903,12460,15513,0.026,551
2019-06-25T16:32:15,42.805,6.029,CST-1368DR,8903,12457,15509,0.028,551
2019-06-25T16:35:16,42.805,6.029,CST-1368DR,8903,12451,15502,0.029,550